ROMMA est une association bénévole à but non lucratif. Votre soutien est indispensable : ADHERER à ROMMA ou FAIRE un DON

Briord - (01, Ain)

Bugey (281 m)   Longitude: 05° 29' 13" E   Latitude: 45° 46' 37" N Station partenaire n°15
 

Détail journalier du     <<     >>

Température Precipitation Humidité Pression Vent Dir Rafale Dir. rafale Ensol.
Heure (°C) (mm) (%) (hPa) (km/h) (km/h) (min)
01:00 6.3090102105E0
02:00 6.1091102103ESE0
03:00 7.6092102103ESE0
04:00 5.8091102102SSE0
05:00 5.0093102003ESE0
06:00 4.7094102003SE0
07:00 3.9093102100---0
08:00 5.0095102102SSE0
09:00 9.0091102100---50
10:00 12.4083102103O60
11:00 14.407910212O13O60
12:00 16.406910205ONO15O60
13:00 18.105410196O18S60
14:00 19.305410196SE24SSE60
15:00 19.904910195ONO21SE50
16:00 20.705410183NNE16NNE60
17:00 21.304910173O15S60
18:00 21.704810172O15OSO60
19:00 21.704410171ONO15O60
20:00 18.6056101708S60
21:00 13.60721018010O0
22:00 12.0076101906SSE0
23:00 10.6080101906SE0
minuit 9.9084102000---0

Graphique du 17-04-2019

 

Serveur OMMA